Forside
METAR-TAF:

METAR-TAF

Lufthavne :

West Bend Municipal Airport

West Bend, Wisconsin, USA

Breddekreds: 43-25-20N, længdekreds: 088-07-41W, højde: 270 m

Aktuelle vejr

Denne rapport blev lavet for 22 minutter siden, kl. 11:55 UTC
Vind 5 kt fra sydøst
Temperatur 2°C
Fugtighed 87%
Tryk 1024 hPa
Sigt: 16.1 km
Overskyet i en højde af 2400 ft

METAR: KETB 241155Z AUTO 13005KT 10SM OVC024 02/00 A3023 RMK AO2

Tid: 06:17 (12:17 UTC)


TAF: fraværende

Vejrobservationer og prognoser fra mere end 4000 lufthavne (METAR og TAF).

De gule og røde prikker repræsenterer de meteorologiske stationer.

Flyt musen over at se navnet på stationen.

Så klik over at se vejr observationer og prognoser.

At skifte det kort: Klik på de grønne knapper med et sort kors for at zoome ind; på den grønne knap med en bindestreg for at zoome ud; eller på de grønne pile for tilstødende kort.


METAR-TAF: